,,,PA_Meas_PMT16A,,PR_Meas_QMR101_102,,RH_Meas_QMH101,,SR_Meas_QMS101,,TA_Meas_QMH101,,GenWind,,GenWind,
date,time,status,PA,status,PR,status,RH,status,SR,status,TA,status,DirAvg,status,SpdAvg,
2009-09-02, 00:00:04,VALID,1000.24,VALID,0,VALID,89.4191,VALID,0,VALID,21.4791,VALID,50,VALID,0.660937,
2009-09-02, 00:01:04,VALID,1000.25,VALID,0,VALID,89.3734,VALID,0,VALID,21.458,VALID,50,VALID,0.514844,
2009-09-02, 00:02:04,VALID,1000.22,VALID,0,VALID,89.1292,VALID,0,VALID,21.4791,VALID,50,VALID,0.769141,
2009-09-02, 00:03:04,VALID,1000.23,VALID,0,VALID,89.1903,VALID,0,VALID,21.4986,VALID,50,VALID,0.836719,
2009-09-02, 00:04:04,VALID,1000.21,VALID,0,VALID,88.9766,VALID,0,VALID,21.5376,VALID,50,VALID,0.815234,
2009-09-02, 00:05:04,VALID,1000.18,VALID,0,VALID,88.2594,VALID,0,VALID,21.5571,VALID,50,VALID,1.07813,
2009-09-02, 00:06:04,VALID,1000.19,VALID,0,VALID,88.145,VALID,0,VALID,21.575,VALID,51,VALID,0.937109,
2009-09-02, 00:07:04,VALID,1000.16,VALID,0,VALID,87.8246,VALID,0,VALID,21.6156,VALID,76,VALID,0.856641,
2009-09-02, 00:08:04,VALID,1000.13,VALID,0,VALID,87.8246,VALID,0,VALID,21.6156,VALID,76,VALID,0.725781,
2009-09-02, 00:09:04,VALID,1000.11,VALID,0,VALID,87.8017,VALID,0,VALID,21.5766,VALID,76,VALID,0.380859,
2009-09-02, 00:10:04,VALID,1000.08,VALID,0,VALID,87.8932,VALID,0,VALID,21.536,VALID,76,VALID,0.0273438,
2009-09-02, 00:11:04,VALID,1000.06,VALID,0,VALID,88,VALID,0,VALID,21.4986,VALID,76,VALID,0,
2009-09-02, 00:12:04,VALID,1000.04,VALID,0,VALID,88.2366,VALID,0,VALID,21.4791,VALID,76,VALID,0.416016,
2009-09-02, 00:13:04,VALID,1000.03,VALID,0,VALID,88.5341,VALID,0,VALID,21.4401,VALID,39,VALID,0.503125,
2009-09-02, 00:14:04,VALID,1000.03,VALID,0,VALID,88.7325,VALID,0,VALID,21.4206,VALID,39,VALID,0.387891,
2009-09-02, 00:15:04,VALID,1000.04,VALID,0,VALID,88.9156,VALID,0,VALID,21.4011,VALID,39,VALID,0.414453,
2009-09-02, 00:16:04,VALID,1000.04,VALID,0,VALID,89.0682,VALID,0,VALID,21.3816,VALID,39,VALID,0.573828,
2009-09-02, 00:17:04,VALID,1000.05,VALID,0,VALID,89.3963,VALID,0,VALID,21.3816,VALID,39,VALID,0.600781,
2009-09-02, 00:18:04,VALID,1000.04,VALID,0,VALID,89.381,VALID,0,VALID,21.3621,VALID,39,VALID,1.00937,
2009-09-02, 00:19:04,VALID,1000.04,VALID,0,VALID,89.8922,VALID,0,VALID,21.3426,VALID,42,VALID,1.13359,
2009-09-02, 00:20:04,VALID,999.991,VALID,0,VALID,89.9685,VALID,0,VALID,21.3621,VALID,42,VALID,1.05313,
2009-09-02, 00:21:04,VALID,999.993,VALID,0,VALID,89.7396,VALID,0,VALID,21.3231,VALID,42,VALID,0.925391,
2009-09-02, 00:22:04,VALID,999.977,VALID,0,VALID,89.5183,VALID,0,VALID,21.2841,VALID,42,VALID,0.7125,
2009-09-02, 00:23:04,VALID,999.963,VALID,0,VALID,89.9303,VALID,0,VALID,21.2256,VALID,42,VALID,0.781641,
2009-09-02, 00:24:04,VALID,999.917,VALID,0,VALID,89.8998,VALID,0,VALID,21.2061,VALID,42,VALID,0.746875,
2009-09-02, 00:25:04,VALID,999.921,VALID,0,VALID,90.2355,VALID,0,VALID,21.1671,VALID,42,VALID,0.785937,
2009-09-02, 00:26:04,VALID,999.881,VALID,0,VALID,90.4415,VALID,0,VALID,21.1671,VALID,42,VALID,0.794922,
2009-09-02, 00:27:04,VALID,999.88,VALID,0,VALID,90.4644,VALID,0,VALID,21.1671,VALID,42,VALID,0.811328,
2009-09-02, 00:28:04,VALID,999.9,VALID,0,VALID,90.4186,VALID,0,VALID,21.1476,VALID,42,VALID,0.651953,
2009-09-02, 00:29:04,VALID,999.861,VALID,0,VALID,90.5712,VALID,0,VALID,21.1281,VALID,42,VALID,0.398047,
2009-09-02, 00:30:04,VALID,999.869,VALID,0,VALID,90.6551,VALID,0,VALID,21.107,VALID,42,VALID,0.194531,
2009-09-02, 00:31:04,VALID,999.829,VALID,0,VALID,90.7925,VALID,0,VALID,21.1086,VALID,42,VALID,0.271875,
2009-09-02, 00:32:04,VALID,999.851,VALID,0,VALID,90.8535,VALID,0,VALID,21.0891,VALID,42,VALID,0.121875,
2009-09-02, 00:33:04,VALID,999.824,VALID,0,VALID,90.968,VALID,0,VALID,21.0696,VALID,42,VALID,0.386328,
2009-09-02, 00:34:04,VALID,999.799,VALID,0,VALID,91.0595,VALID,0,VALID,21.0696,VALID,42,VALID,0.513672,
2009-09-02, 00:35:04,VALID,999.783,VALID,0,VALID,91.09,VALID,0,VALID,21.0696,VALID,42,VALID,0.529297,
2009-09-02, 00:36:04,VALID,999.762,VALID,0,VALID,91.0748,VALID,0,VALID,21.0501,VALID,42,VALID,0.594141,
2009-09-02, 00:37:04,VALID,999.741,VALID,0,VALID,91.3113,VALID,0,VALID,21.0501,VALID,42,VALID,0.438281,
2009-09-02, 00:38:04,VALID,999.707,VALID,0,VALID,91.2655,VALID,0,VALID,21.0891,VALID,42,VALID,0.394141,
2009-09-02, 00:39:04,VALID,999.676,VALID,0,VALID,91.2121,VALID,0,VALID,21.0696,VALID,42,VALID,0.417969,
2009-09-02, 00:40:04,VALID,999.631,VALID,0,VALID,91.3266,VALID,0,VALID,21.0891,VALID,42,VALID,0.694531,
2009-09-02, 00:41:04,VALID,999.634,VALID,0,VALID,91.1511,VALID,0,VALID,21.1476,VALID,42,VALID,0.717188,
2009-09-02, 00:42:04,VALID,999.615,VALID,0,VALID,90.556,VALID,0,VALID,21.1671,VALID,41,VALID,0.484375,
2009-09-02, 00:43:04,VALID,999.609,VALID,0,VALID,90.35,VALID,0,VALID,21.1281,VALID,4,VALID,0.738281,
2009-09-02, 00:44:04,VALID,999.634,VALID,0,VALID,90.0524,VALID,0,VALID,21.0875,VALID,344,VALID,0.690234,
2009-09-02, 00:45:04,VALID,999.651,VALID,0,VALID,89.2437,VALID,0,VALID,21.0306,VALID,344,VALID,0.842188,
2009-09-02, 00:46:04,VALID,999.641,VALID,0,VALID,89.526,VALID,0,VALID,20.9721,VALID,344,VALID,0.647656,
2009-09-02, 00:47:04,VALID,999.625,VALID,0,VALID,90.0143,VALID,0,VALID,20.951,VALID,344,VALID,0.657812,
2009-09-02, 00:48:04,VALID,999.655,VALID,0,VALID,90.1897,VALID,0,VALID,20.9526,VALID,344,VALID,0.324609,
2009-09-02, 00:49:04,VALID,999.65,VALID,0,VALID,90.1897,VALID,0,VALID,20.9315,VALID,344,VALID,0.454688,
2009-09-02, 00:50:04,VALID,999.612,VALID,0,VALID,90.0143,VALID,0,VALID,20.9331,VALID,344,VALID,0.599609,
2009-09-02, 00:51:04,VALID,999.562,VALID,0,VALID,90.1821,VALID,0,VALID,20.873,VALID,345,VALID,0.755469,
2009-09-02, 00:52:04,VALID,999.571,VALID,0,VALID,90.3881,VALID,0,VALID,20.8941,VALID,345,VALID,0.768359,
2009-09-02, 00:53:04,VALID,999.533,VALID,0,VALID,90.5026,VALID,0,VALID,20.8941,VALID,345,VALID,0.704297,
2009-09-02, 00:54:04,VALID,999.49,VALID,0,VALID,90.2508,VALID,0,VALID,20.8551,VALID,345,VALID,0.725391,
2009-09-02, 00:55:04,VALID,999.487,VALID,0,VALID,90.3118,VALID,0,VALID,20.8356,VALID,2,VALID,0.814453,
2009-09-02, 00:56:04,VALID,999.484,VALID,0,VALID,90.6475,VALID,0,VALID,20.8551,VALID,15,VALID,0.914453,
2009-09-02, 00:57:04,VALID,999.453,VALID,0,VALID,90.617,VALID,0,VALID,20.9136,VALID,35,VALID,0.95,
2009-09-02, 00:58:04,VALID,999.461,VALID,0,VALID,89.8769,VALID,0,VALID,20.951,VALID,48,VALID,0.796094,
2009-09-02, 00:59:04,VALID,999.456,VALID,0,VALID,89.7243,VALID,0,VALID,20.951,VALID,63,VALID,0.849609,
2009-09-02, 01:00:04,VALID,999.491,VALID,0,VALID,89.7625,VALID,0,VALID,21.0095,VALID,86,VALID,1.18945,
2009-09-02, 01:01:04,VALID,999.479,VALID,0,VALID,89.1063,VALID,0,VALID,21.0696,VALID,86,VALID,1.32891,
2009-09-02, 01:02:04,VALID,999.47,VALID,0,VALID,88.9003,VALID,0,VALID,21.1086,VALID,86,VALID,1.01836,
2009-09-02, 01:03:04,VALID,999.474,VALID,0,VALID,89.0377,VALID,0,VALID,21.107,VALID,79,VALID,1.35039,
2009-09-02, 01:04:04,VALID,999.517,VALID,0,VALID,88.6486,VALID,0,VALID,21.0875,VALID,79,VALID,1.13906,
2009-09-02, 01:05:04,VALID,999.54,VALID,0,VALID,89.1979,VALID,0,VALID,21.068,VALID,80,VALID,1.19219,
2009-09-02, 01:06:04,VALID,999.534,VALID,0,VALID,89.0377,VALID,0,VALID,21.0891,VALID,81,VALID,0.980469,
2009-09-02, 01:07:04,VALID,999.51,VALID,0,VALID,89.1826,VALID,0,VALID,21.1086,VALID,83,VALID,0.791797,
2009-09-02, 01:08:04,VALID,999.494,VALID,0,VALID,89.2055,VALID,0,VALID,21.0501,VALID,83,VALID,0.716797,
2009-09-02, 01:09:04,VALID,999.474,VALID,0,VALID,89.4802,VALID,0,VALID,21.0306,VALID,83,VALID,0.695703,
2009-09-02, 01:10:04,VALID,999.452,VALID,0,VALID,89.5946,VALID,0,VALID,21.0306,VALID,83,VALID,0.571094,
2009-09-02, 01:11:04,VALID,999.463,VALID,0,VALID,89.8998,VALID,0,VALID,21.0111,VALID,86,VALID,0.789063,
2009-09-02, 01:12:04,VALID,999.443,VALID,0,VALID,89.7167,VALID,0,VALID,21.0306,VALID,86,VALID,0.665234,
2009-09-02, 01:13:04,VALID,999.429,VALID,0,VALID,89.6938,VALID,0,VALID,21.0306,VALID,83,VALID,0.568359,
2009-09-02, 01:14:04,VALID,999.438,VALID,0,VALID,89.8159,VALID,0,VALID,21.0111,VALID,71,VALID,0.449609,
2009-09-02, 01:15:04,VALID,999.457,VALID,0,VALID,89.6328,VALID,0,VALID,20.9916,VALID,71,VALID,0.264453,
2009-09-02, 01:16:04,VALID,999.467,VALID,0,VALID,89.4039,VALID,0,VALID,20.9526,VALID,71,VALID,0,
2009-09-02, 01:17:04,VALID,999.482,VALID,0,VALID,89.6328,VALID,0,VALID,20.9136,VALID,71,VALID,0,
2009-09-02, 01:18:04,VALID,999.489,VALID,0,VALID,89.9227,VALID,0,VALID,20.9136,VALID,71,VALID,0.310547,
2009-09-02, 01:19:04,VALID,999.454,VALID,0,VALID,90.1211,VALID,0,VALID,20.9136,VALID,71,VALID,0.421484,
2009-09-02, 01:20:04,VALID,999.429,VALID,0,VALID,90.1134,VALID,0,VALID,20.8925,VALID,69,VALID,0.398438,
2009-09-02, 01:21:04,VALID,999.428,VALID,0,VALID,89.9609,VALID,0,VALID,20.8535,VALID,21,VALID,0.551562,
2009-09-02, 01:22:04,VALID,999.423,VALID,0,VALID,90.2126,VALID,0,VALID,20.8356,VALID,6,VALID,0.66875,
2009-09-02, 01:23:04,VALID,999.429,VALID,0,VALID,90.0295,VALID,0,VALID,20.7755,VALID,1,VALID,0.758594,
2009-09-02, 01:24:04,VALID,999.439,VALID,0,VALID,89.6633,VALID,0,VALID,20.6991,VALID,1,VALID,0.521484,
2009-09-02, 01:25:04,VALID,999.417,VALID,0,VALID,89.854,VALID,0,VALID,20.6406,VALID,1,VALID,0.354297,
2009-09-02, 01:26:04,VALID,999.41,VALID,0,VALID,90.266,VALID,0,VALID,20.5822,VALID,1,VALID,0.528125,
2009-09-02, 01:27:04,VALID,999.395,VALID,0,VALID,90.8917,VALID,0,VALID,20.5806,VALID,1,VALID,0.957031,
2009-09-02, 01:28:04,VALID,999.394,VALID,0,VALID,91.0671,VALID,0,VALID,20.6211,VALID,1,VALID,0.875391,
2009-09-02, 01:29:04,VALID,999.365,VALID,0,VALID,90.556,VALID,0,VALID,20.6016,VALID,1,VALID,0.575391,
2009-09-02, 01:30:04,VALID,999.367,VALID,0,VALID,91.4563,VALID,0,VALID,20.6001,VALID,1,VALID,0.934766,
2009-09-02, 01:31:04,VALID,999.347,VALID,0,VALID,91.3113,VALID,0,VALID,20.6601,VALID,18,VALID,1.06875,
2009-09-02, 01:32:04,VALID,999.286,VALID,0,VALID,91.4791,VALID,0,VALID,20.6976,VALID,23,VALID,0.819531,
2009-09-02, 01:33:04,VALID,999.3,VALID,0,VALID,91.3571,VALID,0,VALID,20.7381,VALID,40,VALID,0.9375,
2009-09-02, 01:34:04,VALID,999.255,VALID,0,VALID,91.4028,VALID,0,VALID,20.7576,VALID,40,VALID,1.02383,
2009-09-02, 01:35:04,VALID,999.256,VALID,0,VALID,91.029,VALID,0,VALID,20.7966,VALID,40,VALID,0.942187,
2009-09-02, 01:36:04,VALID,999.246,VALID,0,VALID,90.9527,VALID,0,VALID,20.7966,VALID,40,VALID,0.896094,
2009-09-02, 01:37:04,VALID,999.235,VALID,0,VALID,90.8001,VALID,0,VALID,20.7771,VALID,35,VALID,0.8875,
2009-09-02, 01:38:04,VALID,999.215,VALID,0,VALID,91.5707,VALID,0,VALID,20.834,VALID,35,VALID,0.767578,
2009-09-02, 01:39:04,VALID,999.223,VALID,0,VALID,91.1511,VALID,0,VALID,20.912,VALID,33,VALID,0.753125,
2009-09-02, 01:40:04,VALID,999.212,VALID,0,VALID,91.3342,VALID,0,VALID,21.0111,VALID,32,VALID,0.607031,
2009-09-02, 01:41:04,VALID,999.22,VALID,0,VALID,91.4334,VALID,0,VALID,21.0875,VALID,32,VALID,0.655469,
2009-09-02, 01:42:04,VALID,999.2,VALID,0,VALID,91.3952,VALID,0,VALID,21.2451,VALID,32,VALID,0.540234,
2009-09-02, 01:43:04,VALID,999.194,VALID,0,VALID,90.3194,VALID,0,VALID,21.3036,VALID,32,VALID,0.589844,
2009-09-02, 01:44:04,VALID,999.194,VALID,0,VALID,89.648,VALID,0,VALID,21.3426,VALID,32,VALID,0.788281,
2009-09-02, 01:45:04,VALID,999.223,VALID,0,VALID,88.618,VALID,0,VALID,21.3426,VALID,32,VALID,0.9125,
2009-09-02, 01:46:04,VALID,999.199,VALID,0,VALID,88.4502,VALID,0,VALID,21.2841,VALID,32,VALID,0.830859,
2009-09-02, 01:47:04,VALID,999.19,VALID,0,VALID,88.5494,VALID,0,VALID,21.2061,VALID,47,VALID,0.991016,
2009-09-02, 01:48:04,VALID,999.18,VALID,0,VALID,88.6104,VALID,0,VALID,21.1086,VALID,44,VALID,1.01758,
2009-09-02, 01:49:04,VALID,999.164,VALID,0,VALID,88.9232,VALID,0,VALID,21.029,VALID,49,VALID,1.02852,
2009-09-02, 01:50:04,VALID,999.18,VALID,0,VALID,89.0224,VALID,0,VALID,20.9721,VALID,45,VALID,1.22383,
2009-09-02, 01:51:04,VALID,999.099,VALID,0,VALID,89.0834,VALID,0,VALID,20.9331,VALID,43,VALID,0.939453,
2009-09-02, 01:52:04,VALID,999.13,VALID,0,VALID,89.2055,VALID,0,VALID,20.8535,VALID,37,VALID,0.721094,
2009-09-02, 01:53:04,VALID,999.104,VALID,0,VALID,89.1979,VALID,0,VALID,20.795,VALID,37,VALID,0.592969,
2009-09-02, 01:54:04,VALID,999.104,VALID,0,VALID,89.4726,VALID,0,VALID,20.7576,VALID,37,VALID,0.495313,
2009-09-02, 01:55:04,VALID,999.07,VALID,0,VALID,89.8235,VALID,0,VALID,20.7381,VALID,37,VALID,0.538281,
2009-09-02, 01:56:04,VALID,999.111,VALID,0,VALID,90.0524,VALID,0,VALID,20.7186,VALID,37,VALID,0.548828,
2009-09-02, 01:57:04,VALID,999.12,VALID,0,VALID,89.9532,VALID,0,VALID,20.6991,VALID,37,VALID,0.523047,
2009-09-02, 01:58:04,VALID,999.145,VALID,0,VALID,90.0371,VALID,0,VALID,20.6796,VALID,37,VALID,0.675,
2009-09-02, 01:59:04,VALID,999.126,VALID,0,VALID,89.9456,VALID,0,VALID,20.6601,VALID,37,VALID,0.717969,
2009-09-02, 02:00:04,VALID,999.155,VALID,0,VALID,90.1745,VALID,0,VALID,20.6406,VALID,37,VALID,0.643359,
2009-09-02, 02:01:04,VALID,999.141,VALID,0,VALID,90.0829,VALID,0,VALID,20.6016,VALID,37,VALID,0.215234,
2009-09-02, 02:02:04,VALID,999.199,VALID,0,VALID,90.1287,VALID,0,VALID,20.5822,VALID,37,VALID,0,
2009-09-02, 02:03:04,VALID,999.178,VALID,0,VALID,90.1821,VALID,0,VALID,20.5432,VALID,37,VALID,0.189844,
2009-09-02, 02:04:04,VALID,999.165,VALID,0,VALID,90.5026,VALID,0,VALID,20.5432,VALID,37,VALID,0.398438,
2009-09-02, 02:05:04,VALID,999.156,VALID,0,VALID,90.556,VALID,0,VALID,20.5432,VALID,39,VALID,0.518359,
2009-09-02, 02:06:04,VALID,999.133,VALID,0,VALID,90.5865,VALID,0,VALID,20.5237,VALID,59,VALID,0.509766,
2009-09-02, 02:07:04,VALID,999.089,VALID,0,VALID,90.617,VALID,0,VALID,20.4636,VALID,59,VALID,0.628906,
2009-09-02, 02:08:04,VALID,999.07,VALID,0,VALID,90.6628,VALID,0,VALID,20.4457,VALID,60,VALID,0.819922,
2009-09-02, 02:09:04,VALID,999.022,VALID,0,VALID,90.9603,VALID,0,VALID,20.4457,VALID,60,VALID,0.846875,
2009-09-02, 02:10:04,VALID,999.037,VALID,0,VALID,90.762,VALID,0,VALID,20.4457,VALID,60,VALID,0.8,
2009-09-02, 02:11:04,VALID,999.027,VALID,0,VALID,90.7009,VALID,0,VALID,20.4262,VALID,60,VALID,0.767578,
2009-09-02, 02:12:04,VALID,999.005,VALID,0,VALID,90.7849,VALID,0,VALID,20.4262,VALID,60,VALID,0.907031,
2009-09-02, 02:13:04,VALID,998.952,VALID,0,VALID,90.7391,VALID,0,VALID,20.4067,VALID,60,VALID,0.998828,
2009-09-02, 02:14:04,VALID,998.969,VALID,0,VALID,90.8459,VALID,0,VALID,20.4067,VALID,59,VALID,1.07109,
2009-09-02, 02:15:04,VALID,998.953,VALID,0,VALID,90.8611,VALID,0,VALID,20.3856,VALID,59,VALID,1.06758,
2009-09-02, 02:16:04,VALID,998.975,VALID,0,VALID,91.1282,VALID,0,VALID,20.4067,VALID,59,VALID,1.11094,
2009-09-02, 02:17:04,VALID,998.991,VALID,0,VALID,91.2579,VALID,0,VALID,20.4457,VALID,59,VALID,1.04414,
2009-09-02, 02:18:04,VALID,998.994,VALID,0,VALID,91.0595,VALID,0,VALID,20.4636,VALID,59,VALID,0.973047,
2009-09-02, 02:19:04,VALID,998.984,VALID,0,VALID,90.7238,VALID,0,VALID,20.5042,VALID,59,VALID,1.16055,
2009-09-02, 02:20:04,VALID,998.965,VALID,0,VALID,90.7391,VALID,0,VALID,20.4847,VALID,60,VALID,1.32227,
2009-09-02, 02:21:04,VALID,998.977,VALID,0,VALID,91.0061,VALID,0,VALID,20.4847,VALID,59,VALID,1.34023,
2009-09-02, 02:22:04,VALID,998.981,VALID,0,VALID,90.8154,VALID,0,VALID,20.4847,VALID,58,VALID,1.03633,
2009-09-02, 02:23:04,VALID,998.944,VALID,0,VALID,90.9527,VALID,0,VALID,20.4457,VALID,58,VALID,1.06523,
2009-09-02, 02:24:04,VALID,998.927,VALID,0,VALID,90.6704,VALID,0,VALID,20.4262,VALID,50,VALID,0.800391,
2009-09-02, 02:25:04,VALID,998.939,VALID,0,VALID,90.8306,VALID,0,VALID,20.3272,VALID,46,VALID,0.885938,
2009-09-02, 02:26:04,VALID,998.877,VALID,0,VALID,91.0748,VALID,0,VALID,20.3287,VALID,37,VALID,0.590625,
2009-09-02, 02:27:04,VALID,998.889,VALID,0,VALID,91.174,VALID,0,VALID,20.2897,VALID,36,VALID,0.45625,
2009-09-02, 02:28:04,VALID,998.884,VALID,0,VALID,91.4486,VALID,0,VALID,20.2702,VALID,7,VALID,0.721484,
2009-09-02, 02:29:04,VALID,998.882,VALID,0,VALID,91.3037,VALID,0,VALID,20.2718,VALID,349,VALID,0.701172,
2009-09-02, 02:30:04,VALID,998.854,VALID,0,VALID,91.3876,VALID,0,VALID,20.2117,VALID,349,VALID,0.641016,
2009-09-02, 02:31:04,VALID,998.823,VALID,0,VALID,91.3876,VALID,0,VALID,20.1517,VALID,18,VALID,0.741797,
2009-09-02, 02:32:04,VALID,998.786,VALID,0,VALID,91.2579,VALID,0,VALID,20.1127,VALID,19,VALID,0.542188,
2009-09-02, 02:33:04,VALID,998.734,VALID,0,VALID,91.3571,VALID,0,VALID,20.0753,VALID,19,VALID,0.809766,
2009-09-02, 02:34:04,VALID,998.703,VALID,0,VALID,91.6928,VALID,0,VALID,20.0348,VALID,19,VALID,0.940625,
2009-09-02, 02:35:04,VALID,998.684,VALID,0,VALID,91.4791,VALID,0,VALID,20.0168,VALID,20,VALID,0.889453,
2009-09-02, 02:36:04,VALID,998.713,VALID,0,VALID,91.2884,VALID,0,VALID,19.9388,VALID,22,VALID,0.909375,
2009-09-02, 02:37:04,VALID,998.692,VALID,0,VALID,91.7843,VALID,0,VALID,19.8999,VALID,28,VALID,1.2957,
2009-09-02, 02:38:04,VALID,998.717,VALID,0,VALID,92.0285,VALID,0,VALID,19.8999,VALID,29,VALID,1.27031,
2009-09-02, 02:39:04,VALID,998.723,VALID,0,VALID,92.0056,VALID,0,VALID,19.9193,VALID,28,VALID,1.27344,
2009-09-02, 02:40:04,VALID,998.723,VALID,0,VALID,91.8148,VALID,0,VALID,19.8999,VALID,26,VALID,1.17656,
2009-09-02, 02:41:04,VALID,998.739,VALID,0,VALID,91.5707,VALID,0,VALID,19.8399,VALID,22,VALID,0.989453,
2009-09-02, 02:42:04,VALID,998.735,VALID,0,VALID,91.5097,VALID,0,VALID,19.8219,VALID,23,VALID,0.046875,
2009-09-02, 02:43:04,VALID,998.698,VALID,0,VALID,91.5478,VALID,0,VALID,19.7829,VALID,23,VALID,0.0925781,
2009-09-02, 02:44:04,VALID,998.595,VALID,0,VALID,91.7691,VALID,0,VALID,19.7619,VALID,22,VALID,0.673437,
2009-09-02, 02:45:04,VALID,998.588,VALID,0,VALID,91.7462,VALID,0,VALID,19.7619,VALID,16,VALID,0.599609,
2009-09-02, 02:46:04,VALID,998.538,VALID,0,VALID,91.6775,VALID,0,VALID,19.7634,VALID,16,VALID,0.28125,
2009-09-02, 02:47:04,VALID,998.533,VALID,0,VALID,91.7691,VALID,0,VALID,19.7634,VALID,16,VALID,0.497266,
2009-09-02, 02:48:04,VALID,998.488,VALID,0,VALID,91.8683,VALID,0,VALID,19.7829,VALID,16,VALID,0.211328,
2009-09-02, 02:49:04,VALID,998.471,VALID,0,VALID,91.9445,VALID,0,VALID,19.7829,VALID,16,VALID,0.613281,
2009-09-02, 02:50:04,VALID,998.46,VALID,0,VALID,92.12,VALID,0,VALID,19.8414,VALID,16,VALID,0.824219,
2009-09-02, 02:51:04,VALID,998.46,VALID,0,VALID,91.7309,VALID,0,VALID,19.8609,VALID,16,VALID,0.726953,
2009-09-02, 02:52:04,VALID,998.447,VALID,0,VALID,91.441,VALID,0,VALID,19.8804,VALID,16,VALID,1.10117,
2009-09-02, 02:53:04,VALID,998.471,VALID,0,VALID,91.1968,VALID,0,VALID,19.8999,VALID,23,VALID,1.13242,
2009-09-02, 02:54:04,VALID,998.499,VALID,0,VALID,90.9603,VALID,0,VALID,19.9193,VALID,27,VALID,1.16367,
2009-09-02, 02:55:04,VALID,998.475,VALID,0,VALID,91.502,VALID,0,VALID,19.8983,VALID,27,VALID,1.2918,
2009-09-02, 02:56:04,VALID,998.462,VALID,0,VALID,91.2808,VALID,0,VALID,19.9388,VALID,27,VALID,1.43672,
2009-09-02, 02:57:04,VALID,998.467,VALID,0,VALID,90.8383,VALID,0,VALID,19.8789,VALID,37,VALID,1.30234,
2009-09-02, 02:58:04,VALID,998.492,VALID,0,VALID,91.0977,VALID,0,VALID,19.8609,VALID,50,VALID,1.21875,
2009-09-02, 02:59:04,VALID,998.424,VALID,0,VALID,91.9293,VALID,0,VALID,19.8609,VALID,50,VALID,1.43516,
2009-09-02, 03:00:04,VALID,998.465,VALID,0,VALID,91.6546,VALID,0,VALID,19.8999,VALID,48,VALID,1.41719,
2009-09-02, 03:01:04,VALID,998.484,VALID,0,VALID,91.5707,VALID,0,VALID,19.8399,VALID,60,VALID,1.0793,
2009-09-02, 03:02:04,VALID,998.408,VALID,0,VALID,91.4028,VALID,0,VALID,19.8414,VALID,43,VALID,1.19961,
2009-09-02, 03:03:04,VALID,998.421,VALID,0,VALID,91.4181,VALID,0,VALID,19.8219,VALID,37,VALID,1.50781,
2009-09-02, 03:04:04,VALID,998.417,VALID,0,VALID,90.8993,VALID,0,VALID,19.8219,VALID,39,VALID,1.5043,
2009-09-02, 03:05:04,VALID,998.384,VALID,0,VALID,90.4339,VALID,0,VALID,19.8219,VALID,33,VALID,1.46758,
2009-09-02, 03:06:04,VALID,998.431,VALID,0,VALID,89.9837,VALID,0,VALID,19.7814,VALID,27,VALID,1.0668,
2009-09-02, 03:07:05,VALID,998.388,VALID,0,VALID,89.6328,VALID,0,VALID,19.7634,VALID,26,VALID,1.07461,
2009-09-02, 03:08:05,VALID,998.346,VALID,0,VALID,89.8235,VALID,0,VALID,19.7634,VALID,27,VALID,1.15703,
2009-09-02, 03:09:05,VALID,998.361,VALID,0,VALID,89.9914,VALID,0,VALID,19.7829,VALID,28,VALID,1.23438,
2009-09-02, 03:10:05,VALID,998.358,VALID,0,VALID,90.35,VALID,0,VALID,19.8009,VALID,31,VALID,1.22617,
2009-09-02, 03:11:05,VALID,998.347,VALID,0,VALID,90.5331,VALID,0,VALID,19.8609,VALID,32,VALID,1.18867,
2009-09-02, 03:12:05,VALID,998.334,VALID,0,VALID,90.3728,VALID,0.112286,VALID,19.9178,VALID,32,VALID,0.955859,
2009-09-02, 03:13:05,VALID,998.321,VALID,0,VALID,90.2889,VALID,0,VALID,19.9404,VALID,32,VALID,1.08203,
2009-09-02, 03:14:05,VALID,998.325,VALID,0,VALID,90.5102,VALID,0,VALID,19.9388,VALID,32,VALID,1.12852,
2009-09-02, 03:15:05,VALID,998.298,VALID,0,VALID,90.4568,VALID,0,VALID,19.9598,VALID,41,VALID,1.2832,
2009-09-02, 03:16:05,VALID,998.334,VALID,0,VALID,90.35,VALID,0,VALID,19.9404,VALID,42,VALID,1.08398,
2009-09-02, 03:17:05,VALID,998.371,VALID,0,VALID,90.4034,VALID,0,VALID,19.8819,VALID,42,VALID,0.942578,
2009-09-02, 03:18:05,VALID,998.348,VALID,0,VALID,90.411,VALID,0,VALID,19.8234,VALID,37,VALID,0.846094,
2009-09-02, 03:19:05,VALID,998.392,VALID,0,VALID,90.3347,VALID,0,VALID,19.7424,VALID,35,VALID,0.802344,
2009-09-02, 03:20:05,VALID,998.412,VALID,0,VALID,90.5331,VALID,0,VALID,19.7049,VALID,30,VALID,0.855859,
2009-09-02, 03:21:05,VALID,998.412,VALID,0,VALID,90.3652,VALID,0,VALID,19.6075,VALID,12,VALID,1.10039,
2009-09-02, 03:22:05,VALID,998.44,VALID,0,VALID,90.2966,VALID,0,VALID,19.5295,VALID,7,VALID,1.28008,
2009-09-02, 03:23:05,VALID,998.442,VALID,0,VALID,90.3652,VALID,0,VALID,19.4306,VALID,2,VALID,0.968359,
2009-09-02, 03:24:05,VALID,998.441,VALID,0,VALID,90.6246,VALID,0,VALID,19.4321,VALID,347,VALID,1.28398,
2009-09-02, 03:25:05,VALID,998.461,VALID,0,VALID,90.0371,VALID,0,VALID,19.4126,VALID,351,VALID,0.883203,
2009-09-02, 03:26:05,VALID,998.481,VALID,0,VALID,89.7549,VALID,0,VALID,19.3332,VALID,355,VALID,0.839844,
2009-09-02, 03:27:05,VALID,998.425,VALID,0,VALID,91.235,VALID,0,VALID,19.3721,VALID,6,VALID,1.17422,
2009-09-02, 03:28:05,VALID,998.45,VALID,0,VALID,90.4873,VALID,0,VALID,19.3931,VALID,23,VALID,1.26523,
2009-09-02, 03:29:05,VALID,998.476,VALID,0,VALID,90.2203,VALID,0,VALID,19.3736,VALID,28,VALID,1.31172,
2009-09-02, 03:30:05,VALID,998.47,VALID,0,VALID,89.9532,VALID,0,VALID,19.3346,VALID,27,VALID,1.37344,
2009-09-02, 03:31:05,VALID,998.486,VALID,0,VALID,90.2813,VALID,0,VALID,19.3151,VALID,31,VALID,1.41484,
2009-09-02, 03:32:05,VALID,998.5,VALID,0,VALID,90.0982,VALID,0,VALID,19.2552,VALID,33,VALID,1.30742,
2009-09-02, 03:33:05,VALID,998.527,VALID,0,VALID,90.3042,VALID,0,VALID,19.2372,VALID,38,VALID,1.29648,
2009-09-02, 03:34:05,VALID,998.569,VALID,0,VALID,90.8459,VALID,0,VALID,19.2177,VALID,40,VALID,1.175,
2009-09-02, 03:35:05,VALID,998.553,VALID,0,VALID,91.1129,VALID,0,VALID,19.2567,VALID,47,VALID,1.11523,
2009-09-02, 03:36:05,VALID,998.536,VALID,0,VALID,90.4644,VALID,0,VALID,19.2956,VALID,48,VALID,1.23047,
2009-09-02, 03:37:05,VALID,998.523,VALID,0,VALID,90.1211,VALID,0,VALID,19.2956,VALID,49,VALID,1.3457,
2009-09-02, 03:38:05,VALID,998.55,VALID,0,VALID,89.5641,VALID,0,VALID,19.2567,VALID,57,VALID,1.10273,
2009-09-02, 03:39:05,VALID,998.574,VALID,0,VALID,89.648,VALID,0,VALID,19.2177,VALID,60,VALID,1.40937,
2009-09-02, 03:40:05,VALID,998.549,VALID,0,VALID,89.7243,VALID,0,VALID,19.2177,VALID,52,VALID,1.34297,
2009-09-02, 03:41:05,VALID,998.565,VALID,0,VALID,89.648,VALID,0,VALID,19.2567,VALID,48,VALID,1.12305,
2009-09-02, 03:42:05,VALID,998.573,VALID,0,VALID,89.3581,VALID,0,VALID,19.2567,VALID,46,VALID,0.770312,
2009-09-02, 03:43:05,VALID,998.595,VALID,0,VALID,89.3123,VALID,0,VALID,19.2177,VALID,30,VALID,0.696484,
2009-09-02, 03:44:05,VALID,998.596,VALID,0,VALID,89.442,VALID,0,VALID,19.1982,VALID,28,VALID,1.02773,
2009-09-02, 03:45:05,VALID,998.607,VALID,0,VALID,89.7625,VALID,0,VALID,19.1787,VALID,28,VALID,0.996094,
2009-09-02, 03:46:05,VALID,998.6,VALID,0,VALID,89.7701,VALID,0,VALID,19.1592,VALID,29,VALID,1.10039,
2009-09-02, 03:47:05,VALID,998.588,VALID,0,VALID,89.8159,VALID,0,VALID,19.1592,VALID,44,VALID,0.9125,